STARLINK-34762

Last updated on Thu Oct 02 2025 00:02:05 GMT+0000 (Coordinated Universal Time)

1 65473U 25195R 25274.50002315 -.00004277 00000+0 -97072-4 0 9993 2 65473 53.1598 280.7803 0001537 85.6941 8.8299 15.39595903 4958
UTC large
Height (km)
Speed (km/s)
/
Latitude / Longitude
Inclination (degrees)
Orbital Period (minutes)
Azimuth
Elevation
Range (km)
Doppler Factor

Next 0 passes for location: London (51.5072 / 0.1276)

Sorry there are no passes over London.
STARLINK-34762